Tracking 22130 objects as of 21-Jan-2021
HD Live streaming from Space Station
objects crossing your sky now

STARLINK-1141

Track STARLINK-1141 now!
10-day predictions
STARLINK-1141 is classified as:


NORAD ID: 45051
Int'l Code: 2020-006H
Perigee: 553.4 km
Apogee: 555.3 km
Inclination: 53.1 °
Period: 95.6 minutes
Semi major axis: 6925 km
RCS: Unknown
Launch date: January 29, 2020
Source: United States (US)
Launch site: AIR FORCE EASTERN TEST RANGE (AFETR)
aabbcc
Your satellite tracking list
Your tracking list is empty




NASA's NSSDC Master Catalog

Two Line Element Set (TLE):
1 45051U 20006H   21021.48664745 -.00001207  00000-0 -62136-4 0  9997
2 45051  53.0586  55.7297 0001402  66.1099 294.0037 15.06394421 54129
Source of the keplerian elements: AFSPC